Regional Weather Roundup
Issued by NWS

Home | Current Version | Previous Version | Graphics & Text | Print | Product List | Glossary On
Versions: 1 2 3 4 5 6 7 8 9 10 11 12 13 14 15 16 17 18 19 20 21 22 23 24 25 26 27 28 29 30 31 32 33 34 35 36 37 38 39 40 41 42 43 44 45 46 47 48 49 50
000
ASUS43 KMKX 241520
RWRWI

WISCONSIN REGIONAL WEATHER ROUNDUP
NATIONAL WEATHER SERVICE MILWAUKEE/SULLIVAN WI
1000 AM CDT TUE APR 24 2018

NOTE: "FAIR" INDICATES FEW OR NO CLOUDS BELOW 12,000 FEET WITH NO
SIGNIFICANT WEATHER AND/OR OBSTRUCTIONS TO VISIBILITY.

WIZ001-002-006>008-014>016-023>028-241600-
NORTHWEST WISCONSIN

CITY           SKY/WX    TMP DP  RH WIND       PRES   REMARKS
SUPERIOR ARPT  CLOUDY    47  32  55 NE8       30.23R
ASHLAND        FAIR      48  32  53 NE14      30.21S
HAYWARD        FAIR      55  31  39 N14       30.16S
SIREN          PTSUNNY   54  30  39 NE8       30.18R
CUMBERLAND     FAIR      52  32  46 NE6       30.14R
RICE LAKE      PTSUNNY   55  35  46 N8        30.15S
CHETEK         FAIR      55  37  50 NW5       30.13R
LADYSMITH      FAIR      58  35  41 NE9       30.14S
EAU CLAIRE     FAIR      58  35  42 CALM      30.10F
MENOMONIE      FAIR      60  36  40 N5        30.12S
NEW RICHMOND   PTSUNNY   56  37  48 N7        30.14R
OSCEOLA        FAIR      57  37  47 N6        30.18R
$$

WIZ003>005-009-010-017-018-241600-
NORTH CENTRAL WISCONSIN

CITY           SKY/WX    TMP DP  RH WIND       PRES   REMARKS
MANITOWISH WTR PTSUNNY   48  31  50 NE8       30.14S
ARBOR VITAE    PTSUNNY   52  33  49 N12       30.13S
WOODRUFF       PTSUNNY   52  33  49 N12       30.13S
RHINELANDER    FAIR      57  31  37 N3        30.11F
EAGLE RIVER    FAIR      53  29  40 N8        30.11S
LAND O LAKES   CLOUDY    49  30  48 N8        30.15R
PHILLIPS       FAIR      55  34  45 N6        30.12S
TOMAHAWK       FAIR      56  30  37 CALM      30.12S
MEDFORD        FAIR      58  36  43 CALM      30.10F
MERRILL        FAIR      58  35  40 CALM      30.11S
$$

WIZ029-030-035-036-043>047-241600-
CENTRAL WISCONSIN

CITY           SKY/WX    TMP DP  RH WIND       PRES   REMARKS
WAUSAU         FAIR      60  31  33 N6        30.09S
MOSINEE        MOSUNNY   57  34  41 NW6       30.11F
MARSHFIELD     FAIR      62  34  35 N7        30.09F
STEVENS POINT  FAIR      59  31  35 NE5       30.10F
WAUPACA        FAIR      62  28  27 NE5       30.09F
WAUTOMA        FAIR      63  31  30 VRB3      30.09F
WISC RAPIDS    FAIR      61  30  31 VRB5      30.11F
CAMP DOUGLAS   NOT AVBL
$$

WIZ011>013-019>022-031-037>040-048>050-241600-
NORTHEAST WISCONSIN

CITY           SKY/WX    TMP DP  RH WIND       PRES   REMARKS
ANTIGO         PTSUNNY   55  37  50 CALM      30.10S
SHAWANO        FAIR      59  30  33 CALM      30.09S
OCONTO         FAIR      56  31  39 CALM      30.09S
STURGEON BAY   FAIR      56  28  34 CALM      30.10F
GREEN BAY      FAIR      57  31  37 E3        30.09F
MANITOWOC      FAIR      53  33  46 NE7       30.09F
APPLETON       MOSUNNY   57  23  26 N6        30.07F
CLINTONVILLE   FAIR      55  28  34 CALM      30.09S
OSHKOSH        FAIR      58  33  39 N6        30.08F
$$

WIZ032>034-041-042-053>061-241600-
SOUTHWEST WISCONSIN

CITY           SKY/WX    TMP DP  RH WIND       PRES   REMARKS
LA CROSSE      FAIR      58  39  49 VRB3      30.10F
SPARTA         FAIR      59  32  36 CALM      30.11F
VIROQUA        FAIR      62  35  35 NE7       30.10F
BOSCOBEL       FAIR      58  34  40 CALM      30.11F
PRAIRIE DU CHI FAIR      56  36  46 CALM      30.10F
PLATTEVILLE    FAIR      62  33  33 N8        30.09F
$$

WIZ056-057-062-063-064-067-068-241600-
SOUTH CENTRAL WISCONSIN

CITY           SKY/WX    TMP DP  RH WIND       PRES   REMARKS
REEDSBURG      FAIR      59  34  39 CALM      30.09F
BARABOO/DELLS  FAIR      58  29  33 CALM      30.10F
LONE ROCK      FAIR      57  36  45 CALM      30.10F
MINERAL POINT  FAIR      61  27  27 N7        30.09F
MADISON        FAIR      60  31  33 N13       30.08F
MIDDLETON      FAIR      62  29  29 N6G16     30.09F
WATERTOWN      FAIR      58  32  38 N7        30.07F
MONROE         FAIR      61  28  29 N15       30.07F
JANESVILLE     MOSUNNY   63  25  23 N8        30.06F
$$

WIZ051-052-058>065-066-070>072-241600-
SOUTHEAST WISCONSIN

CITY           SKY/WX    TMP DP  RH WIND       PRES   REMARKS
MILWAUKEE      PTSUNNY   53  33  46 N6        30.09S
WAUKESHA       SUNNY     55  28  35 N10       30.09S
MILWAUKEE/TIMM SUNNY     54  27  35 NE5       30.09S
RACINE         CLOUDY    49  35  58 N8        30.09F
BURLINGTON     FAIR      56  32  39 N3        30.07F
KENOSHA        CLOUDY    52  36  54 N5        30.07F
FOND DU LAC    FAIR      56  35  45 N6        30.08F
SHEBOYGAN      FAIR      57  36  45 N8        30.07F
WEST BEND      FAIR      57  28  33 E3        30.07F
JUNEAU         FAIR      56  31  38 N8        30.09F
$$

LSZ147-162-241600-
LAKE SUPERIOR

STATION/POSITION TIME  TEMP    WIND        PRES    WAVE
                       AIR SEA DIR/SP/G            HT/PER
                 (UTC) (F)     (DEG/KT/KT) (MB)    (FT/S)
DEVILS ISLAND    1500   44      30/ 13/ 13 1024.1F
SAXON HARBOR     1440   36     320/  6/  8 1022.4R
$$

LMZ867-665-643>646-241600-
LAKE MICHIGAN

STATION/POSITION TIME  TEMP    WIND        PRES    WAVE
                       AIR SEA DIR/SP/G            HT/PER
                 (UTC) (F)     (DEG/KT/KT) (MB)    (FT/S)
NORTHPORT PIER   1440   50                 1019.3F
KEWAUNEE LAKESHO 1454   45      40/  5/  7 1018.5F
SHEBOYGAN LAKESH 1500   39      10/  8/  9 1019.1F
PORT WASHINGTON  1430   47     100/  3/  5 1019.6F
MILWAUKEE LAKESH 1500   45      50/  7/  8   N/A
KENOSHA   LAKESH 1500   42                 1018.6
$$

TC  - TEMPERATURE IN CELSIUS
VSB - VISIBILITY IN STATUTE MILES
WCI - WIND CHILL INDEX
HX  - HEAT INDEX




USA.gov is the U.S. government's official web portal to all federal, state and local government web resources and services.